Hourly Weather São Paulo

Today, 25 September, Friday

Time Temperature Precipitation Wind Pressure Humidity
00:00 +20°C° 0 mm 1 mps 701 mmHg 82%
01:00 +20°C° 0 mm 1 mps 701 mmHg 84%
02:00 +19°C° 0 mm 1 mps 700 mmHg 85%
03:00 +19°C° 0 mm 1 mps 700 mmHg 86%
04:00 +19°C° 0 mm 1 mps 700 mmHg 87%
05:00 +19°C° 0 mm 1 mps 701 mmHg 88%
06:00 +19°C° 0 mm 1 mps 701 mmHg 90%
07:00 +21°C° 0 mm 1 mps 701 mmHg 80%
08:00 +23°C° 0 mm 1 mps 702 mmHg 71%
09:00 +25°C° 0 mm 1 mps 703 mmHg 62%
10:00 +27°C° 0 mm 1 mps 703 mmHg 54%
11:00 +29°C° 0 mm 1 mps 702 mmHg 46%
12:00 +31°C° 0 mm 1 mps 702 mmHg 38%
13:00 +31°C° 0 mm 1 mps 702 mmHg 37%
14:00 +31°C° 0 mm 2 mps 701 mmHg 35%
15:00 +32°C° 0 mm 2 mps 700 mmHg 33%
16:00 +30°C° 0 mm 2 mps 700 mmHg 41%
17:00 +28°C° 0 mm 2 mps 700 mmHg 50%
18:00 +26°C° 0 mm 2 mps 699 mmHg 58%
19:00 +25°C° 0 mm 2 mps 699 mmHg 62%
20:00 +25°C° 0 mm 2 mps 700 mmHg 65%
21:00 +24°C° 0 mm 2 mps 700 mmHg 68%
22:00 +24°C° 0 mm 2 mps 700 mmHg 69%
23:00 +23°C° 0 mm 1 mps 699 mmHg 69%

Tomorrow, 26 September, Saturday

Time Temperature Precipitation Wind Pressure Humidity
00:00 +23°C° 0 mm 1 mps 699 mmHg 70%
01:00 +23°C° 0 mm 1 mps 699 mmHg 72%
02:00 +22°C° 0 mm 1 mps 698 mmHg 74%
03:00 +22°C° 0 mm 1 mps 698 mmHg 75%
04:00 +22°C° 0 mm 1 mps 698 mmHg 76%
05:00 +21°C° 0 mm 1 mps 698 mmHg 76%
06:00 +21°C° 0 mm 1 mps 698 mmHg 77%
07:00 +23°C° 0 mm 1 mps 699 mmHg 66%
08:00 +26°C° 0 mm 1 mps 699 mmHg 55%
09:00 +28°C° 0 mm 2 mps 700 mmHg 44%
10:00 +30°C° 0 mm 2 mps 700 mmHg 39%
11:00 +32°C° 0 mm 2 mps 700 mmHg 33%
12:00 +35°C° 0 mm 2 mps 700 mmHg 27%
13:00 +35°C° 0 mm 3 mps 699 mmHg 28%
14:00 +35°C° 0 mm 3 mps 698 mmHg 28%
15:00 +35°C° 0 mm 3 mps 698 mmHg 28%
16:00 +32°C° 0 mm 2 mps 697 mmHg 33%
17:00 +31°C° 0 mm 2 mps 697 mmHg 39%
18:00 +29°C° 0 mm 1 mps 696 mmHg 44%
19:00 +29°C° 0 mm 1 mps 696 mmHg 46%
20:00 +28°C° 0 mm 1 mps 697 mmHg 47%
21:00 +27°C° 0 mm 1 mps 697 mmHg 49%
22:00 +27°C° 0 mm 1 mps 697 mmHg 48%
23:00 +26°C° 0 mm 1 mps 697 mmHg 47%

Day after tomorrow, 27 September, Sunday

Time Temperature Precipitation Wind Pressure Humidity
00:00 +26°C° 0 mm 1 mps 697 mmHg 47%
01:00 +25°C° 0 mm 1 mps 696 mmHg 47%
02:00 +25°C° 0 mm 1 mps 696 mmHg 47%
03:00 +24°C° 0 mm 1 mps 695 mmHg 47%
04:00 +24°C° 0 mm 1 mps 695 mmHg 47%
05:00 +24°C° 0 mm 1 mps 696 mmHg 47%
06:00 +24°C° 0 mm 1 mps 696 mmHg 47%
07:00 +26°C° 0 mm 2 mps 696 mmHg 41%
08:00 +29°C° 0 mm 3 mps 697 mmHg 35%
09:00 +31°C° 0 mm 3 mps 698 mmHg 29%
10:00 +34°C° 0 mm 4 mps 698 mmHg 26%
11:00 +35°C° 0 mm 4 mps 698 mmHg 23%
12:00 +37°C° 0 mm 5 mps 698 mmHg 20%
13:00 +37°C° 0 mm 5 mps 697 mmHg 19%
14:00 +39°C° 0 mm 5 mps 697 mmHg 19%
15:00 +39°C° 0 mm 5 mps 696 mmHg 19%
16:00 +36°C° 0 mm 4 mps 696 mmHg 21%
17:00 +35°C° 0 mm 3 mps 696 mmHg 23%
18:00 +34°C° 0 mm 2 mps 695 mmHg 25%
19:00 +32°C° 0 mm 2 mps 696 mmHg 27%
20:00 +31°C° 0 mm 1 mps 696 mmHg 28%
21:00 +31°C° 0 mm 1 mps 696 mmHg 29%
22:00 +30°C° 0 mm 1 mps 696 mmHg 31%
23:00 +29°C° 0 mm 1 mps 696 mmHg 32%

28 September, Monday

Time Temperature Precipitation Wind Pressure Humidity
00:00 +29°C° 0 mm 1 mps 696 mmHg 34%
01:00 +28°C° 0 mm 1 mps 695 mmHg 35%
02:00 +27°C° 0 mm 2 mps 695 mmHg 36%
03:00 +27°C° 0 mm 2 mps 694 mmHg 37%
04:00 +27°C° 0 mm 2 mps 694 mmHg 38%
05:00 +26°C° 0 mm 2 mps 694 mmHg 38%
06:00 +26°C° 0 mm 2 mps 695 mmHg 39%
07:00 +28°C° 0 mm 3 mps 695 mmHg 34%
08:00 +32°C° 0 mm 4 mps 696 mmHg 29%
09:00 +34°C° 0 mm 4 mps 697 mmHg 23%
10:00 +36°C° 0 mm 5 mps 697 mmHg 21%
11:00 +37°C° 0 mm 5 mps 697 mmHg 19%
12:00 +40°C° 0 mm 6 mps 697 mmHg 17%
13:00 +39°C° 0 mm 5 mps 697 mmHg 20%
14:00 +37°C° 0 mm 5 mps 696 mmHg 24%
15:00 +37°C° 0 mm 4 mps 696 mmHg 27%
16:00 +34°C° 0 mm 4 mps 696 mmHg 38%
17:00 +30°C° 0 mm 4 mps 696 mmHg 49%
18:00 +27°C° 0 mm 4 mps 696 mmHg 60%
19:00 +25°C° 0 mm 4 mps 696 mmHg 67%
20:00 +23°C° 0 mm 4 mps 696 mmHg 74%
21:00 +22°C° 0 mm 4 mps 697 mmHg 80%
22:00 +22°C° 0 mm 4 mps 697 mmHg 80%
23:00 +22°C° 0 mm 4 mps 698 mmHg 81%

29 September, Tuesday

Time Temperature Precipitation Wind Pressure Humidity
00:00 +22°C° 0 mm 3 mps 698 mmHg 81%
01:00 +21°C° 0 mm 4 mps 698 mmHg 82%
02:00 +21°C° 0 mm 4 mps 697 mmHg 82%
03:00 +21°C° 0 mm 4 mps 697 mmHg 83%
04:00 +21°C° 0 mm 4 mps 698 mmHg 82%
05:00 +21°C° 0 mm 3 mps 698 mmHg 82%
06:00 +21°C° 0 mm 3 mps 698 mmHg 82%
07:00 +22°C° 0 mm 3 mps 699 mmHg 77%
08:00 +24°C° 0 mm 3 mps 699 mmHg 72%
09:00 +25°C° 0 mm 4 mps 699 mmHg 67%
10:00 +26°C° 0 mm 3 mps 699 mmHg 61%
11:00 +28°C° 0 mm 3 mps 700 mmHg 54%
12:00 +30°C° 0 mm 3 mps 700 mmHg 47%
13:00 +30°C° 0 mm 3 mps 699 mmHg 50%
14:00 +29°C° 0 mm 4 mps 698 mmHg 52%
15:00 +29°C° 0 mm 4 mps 698 mmHg 55%
16:00 +27°C° 0 mm 4 mps 698 mmHg 61%
17:00 +25°C° 0 mm 3 mps 697 mmHg 68%
18:00 +22°C° 0 mm 3 mps 697 mmHg 74%
19:00 +22°C° 0 mm 3 mps 697 mmHg 77%
20:00 +21°C° 0 mm 3 mps 698 mmHg 79%
21:00 +21°C° 0 mm 2 mps 698 mmHg 81%
22:00 +21°C° 0 mm 2 mps 698 mmHg 82%
23:00 +20°C° 0 mm 2 mps 698 mmHg 83%

30 September, Wednesday

Time Temperature Precipitation Wind Pressure Humidity
00:00 +20°C° 0 mm 2 mps 698 mmHg 85%
01:00 +20°C° 0 mm 2 mps 697 mmHg 85%
02:00 +20°C° 0 mm 2 mps 697 mmHg 85%
03:00 +20°C° 0 mm 2 mps 696 mmHg 85%
04:00 +20°C° 0 mm 2 mps 697 mmHg 83%
05:00 +21°C° 0 mm 2 mps 697 mmHg 81%
06:00 +21°C° 0 mm 2 mps 697 mmHg 79%
07:00 +25°C° 0 mm 2 mps 697 mmHg 65%
08:00 +28°C° 0 mm 3 mps 698 mmHg 52%
09:00 +32°C° 0 mm 4 mps 698 mmHg 38%
10:00 +34°C° 0 mm 5 mps 698 mmHg 32%
11:00 +37°C° 0 mm 5 mps 698 mmHg 26%
12:00 +40°C° 0 mm 6 mps 698 mmHg 20%
13:00 +40°C° 0 mm 6 mps 698 mmHg 19%
14:00 +41°C° 0 mm 6 mps 697 mmHg 18%
15:00 +41°C° 0 mm 5 mps 696 mmHg 17%
16:00 +38°C° 0 mm 4 mps 696 mmHg 19%
17:00 +37°C° 0 mm 3 mps 696 mmHg 21%
18:00 +36°C° 0 mm 2 mps 696 mmHg 23%
19:00 +34°C° 0 mm 2 mps 696 mmHg 28%
20:00 +32°C° 0 mm 2 mps 697 mmHg 33%
21:00 +30°C° 0 mm 2 mps 697 mmHg 39%
22:00 +29°C° 0 mm 2 mps 697 mmHg 45%
23:00 +28°C° 0 mm 2 mps 697 mmHg 51%
Show more